W8APS Weather Reports


time (UTC)temp
F
wind
direction
speed
knots
gust
knots
rain 1hr
in
rain 24hr
in
rain mn
in
humidity
%
barometer
mb
20260508111014 39 0 0.0 0.0 0.00 0.00 0.00 94 1011.2
20260508110517 38 0 0.0 0.0 0.00 0.00 0.00 94 1011.2
20260508110033 38 0 0.0 0.0 0.00 0.00 0.00 94 1011.1
20260508105516 38 0 0.0 0.0 0.00 0.00 0.00 94 1011.1
20260508105020 37 0 0.0 0.0 0.00 0.00 0.00 94 1011.1
20260508104530 37 0 0.0 0.0 0.00 0.00 0.00 94 1011.1
20260508104013 36 0 0.0 0.0 0.00 0.00 0.00 94 1011.1
20260508103517 36 0 0.0 0.0 0.00 0.00 0.00 94 1011.1
20260508103030 37 0 0.0 0.0 0.00 0.00 0.00 94 1011.1
20260508102516 37 0 0.0 0.0 0.00 0.00 0.00 93 1011.2
20260508102016 37 0 0.0 0.9 0.00 0.00 0.00 93 1011.1
20260508101533 37 0 0.0 0.9 0.00 0.00 0.00 93 1011.1
20260508101013 37 333 0.0 0.9 0.00 0.00 0.00 93 1011.2
20260508100515 37 0 0.0 0.0 0.00 0.00 0.00 93 1011.2
20260508100031 37 0 0.0 0.0 0.00 0.00 0.00 93 1011.2
20260508095514 37 0 0.0 0.9 0.00 0.00 0.00 92 1011.2
20260508095017 37 0 0.0 0.9 0.00 0.00 0.00 92 1011.3
20260508094531 37 0 0.0 0.9 0.00 0.00 0.00 92 1011.3
20260508094049 38 0 0.0 0.0 0.00 0.00 0.00 92 1011.4
20260508093513 38 0 0.0 0.0 0.00 0.00 0.00 92 1011.3
20260508093033 38 0 0.0 0.0 0.00 0.00 0.00 92 1011.4
20260508092515 38 0 0.0 0.0 0.00 0.00 0.00 91 1011.4
20260508092011 38 0 0.0 0.0 0.00 0.00 0.00 91 1011.4
20260508091536 38 0 0.0 0.0 0.00 0.00 0.00 91 1011.4
20260508091014 39 0 0.0 0.0 0.00 0.00 0.00 91 1011.4
20260508090512 39 169 0.0 0.0 0.00 0.00 0.00 91 1011.3
20260508090028 39 0 0.0 0.0 0.00 0.00 0.00 91 1011.4
20260508085513 39 0 0.0 0.0 0.00 0.00 0.00 90 1011.4
20260508085013 39 0 0.0 0.0 0.00 0.00 0.00 89 1011.4
20260508084530 39 0 0.0 0.0 0.00 0.00 0.00 89 1011.5
20260508084017 39 0 0.0 0.0 0.00 0.00 0.00 89 1011.5
20260508083512 39 0 0.0 0.0 0.00 0.00 0.00 88 1011.3
20260508083030 39 0 0.0 0.0 0.00 0.00 0.00 88 1011.4
20260508082514 39 0 0.0 0.0 0.00 0.00 0.00 87 1011.5
20260508082014 39 0 0.0 0.0 0.00 0.00 0.00 85 1011.4
20260508081543 40 0 0.0 0.0 0.00 0.00 0.00 86 1011.4
20260508081016 40 0 0.0 0.0 0.00 0.00 0.00 85 1011.5
20260508080518 40 169 0.0 0.9 0.00 0.00 0.00 85 1011.4
20260508080029 41 0 0.0 0.9 0.00 0.00 0.00 84 1011.4
20260508075514 41 131 0.0 0.9 0.00 0.00 0.00 83 1011.4
20260508075013 41 0 0.0 0.9 0.00 0.00 0.00 83 1011.4
20260508074532 41 0 0.0 0.0 0.00 0.00 0.00 82 1011.5
20260508074014 41 0 0.0 0.0 0.00 0.00 0.00 81 1011.3
20260508073514 41 0 0.0 0.0 0.00 0.00 0.00 80 1011.3
20260508073031 42 0 0.0 0.0 0.00 0.00 0.00 80 1011.2
20260508072513 42 0 0.0 0.9 0.00 0.00 0.00 79 1011.2
20260508072013 42 167 0.0 0.9 0.00 0.00 0.00 80 1011.2
20260508071530 42 112 0.0 0.9 0.00 0.00 0.00 80 1011.2
20260508071015 42 0 0.0 0.9 0.00 0.00 0.00 81 1011.3
20260508070514 42 125 0.0 0.9 0.00 0.00 0.00 80 1011.4
20260508070031 42 0 0.0 0.9 0.00 0.00 0.00 80 1011.5
20260508065518 42 354 0.0 1.7 0.00 0.00 0.00 80 1011.5
20260508065013 42 0 0.0 1.7 0.00 0.00 0.00 80 1011.4
20260508064531 42 75 0.0 3.5 0.00 0.00 0.00 79 1011.5
20260508064016 42 37 0.0 3.5 0.00 0.00 0.00 79 1011.6
20260508063516 42 345 1.7 3.5 0.00 0.00 0.00 79 1011.9
20260508063030 42 335 0.0 1.7 0.00 0.00 0.00 79 1011.7
20260508062514 43 1 0.0 1.7 0.00 0.00 0.00 77 1011.7
20260508062014 43 0 0.0 3.5 0.00 0.00 0.00 76 1011.8
20260508061530 43 346 0.9 3.5 0.00 0.00 0.00 76 1011.9
20260508061014 43 8 0.0 1.7 0.00 0.00 0.00 75 1011.7
20260508060519 43 358 0.0 0.9 0.00 0.00 0.00 73 1011.9
20260508060029 43 0 0.0 3.5 0.00 0.00 0.00 72 1012.0
20260508055514 43 347 0.0 6.1 0.00 0.00 0.00 71 1011.9
20260508055013 44 308 0.9 6.1 0.00 0.00 0.00 71 1011.6
20260508054530 44 103 3.5 6.1 0.00 0.00 0.00 69 1011.2
20260508054011 44 108 0.9 4.3 0.00 0.00 0.00 68 1012.0
20260508053515 44 331 0.9 4.3 0.00 0.00 0.00 67 1012.3
20260508053031 44 0 0.0 0.9 0.00 0.00 0.00 67 1011.8
20260508052517 44 0 0.0 0.9 0.00 0.00 0.00 67 1011.8
20260508052011 44 0 0.0 0.9 0.00 0.00 0.00 67 1011.8
20260508051534 44 0 0.0 0.9 0.00 0.00 0.00 68 1011.9
20260508051011 44 0 0.0 2.6 0.00 0.00 0.00 68 1012.0
20260508050516 44 357 0.9 3.5 0.00 0.00 0.00 67 1012.1
20260508050033 44 352 0.9 3.5 0.00 0.00 0.00 66 1012.1
20260508045515 44 25 0.0 2.6 0.00 0.00 0.00 67 1011.9
20260508045014 44 0 0.0 0.9 0.00 0.00 0.00 68 1012.0
20260508044528 44 0 0.0 1.7 0.00 0.00 0.00 69 1011.9
20260508044014 44 0 0.0 1.7 0.00 0.00 0.00 69 1012.0
20260508043514 43 0 0.0 1.7 0.00 0.00 0.00 73 1012.1
20260508043032 43 301 0.0 1.7 0.00 0.00 0.00 77 1012.1
20260508042515 43 347 0.0 0.9 0.00 0.00 0.00 75 1012.2
20260508042014 43 216 0.0 0.9 0.00 0.00 0.00 78 1012.1
20260508041534 43 0 0.0 0.0 0.00 0.00 0.00 76 1011.9
20260508041014 43 0 0.0 0.0 0.00 0.00 0.00 71 1011.7
20260508040514 44 0 0.0 0.0 0.00 0.00 0.00 70 1011.6
20260508040032 44 0 0.0 0.0 0.00 0.00 0.00 73 1011.6
20260508035517 44 0 0.0 0.0 0.00 0.00 0.00 73 1011.6
20260508035014 44 0 0.0 0.0 0.00 0.00 0.00 73 1011.5
20260508034534 45 0 0.0 0.0 0.00 0.00 0.00 73 1011.5
20260508034012 45 0 0.0 0.0 0.00 0.00 0.00 72 1011.5
20260508033513 45 0 0.0 0.0 0.00 0.00 0.00 71 1011.5
20260508033028 45 0 0.0 0.0 0.00 0.00 0.00 66 1011.4
20260508032513 45 0 0.0 0.0 0.00 0.00 0.00 67 1011.3
20260508032015 45 0 0.0 0.0 0.00 0.00 0.00 67 1011.4
20260508031532 45 0 0.0 0.0 0.00 0.00 0.00 68 1011.5
20260508031014 45 0 0.0 0.0 0.00 0.00 0.00 66 1011.5
20260508030513 45 0 0.0 0.0 0.00 0.00 0.00 65 1011.6
20260508030032 45 0 0.0 0.0 0.00 0.00 0.00 63 1011.7
20260508025513 45 0 0.0 0.0 0.00 0.00 0.00 61 1011.8
20260508025016 45 0 0.0 0.0 0.00 0.00 0.00 61 1011.9
20260508024532 45 0 0.0 0.0 0.00 0.00 0.00 62 1011.9
20260508024014 45 0 0.0 0.0 0.00 0.00 0.00 63 1012.0
20260508023514 45 0 0.0 0.0 0.00 0.00 0.00 63 1011.9
20260508023030 45 0 0.0 0.0 0.00 0.00 0.00 63 1011.9
20260508022513 45 0 0.0 0.9 0.00 0.00 0.00 61 1011.7
20260508022014 45 0 0.0 0.9 0.00 0.00 0.00 61 1011.9
20260508021531 46 169 0.0 0.9 0.00 0.00 0.00 59 1011.8
20260508021016 46 0 0.0 0.9 0.00 0.00 0.00 60 1011.8
20260508020514 46 0 0.0 0.9 0.00 0.00 0.00 59 1011.6
20260508020037 47 0 0.0 0.9 0.00 0.00 0.00 58 1011.6
20260508015515 47 0 0.0 0.9 0.00 0.00 0.00 57 1011.6
20260508015015 47 0 0.0 3.5 0.00 0.00 0.00 56 1011.7
20260508014529 47 263 0.0 3.5 0.00 0.00 0.00 55 1011.6
20260508014013 48 273 0.9 4.3 0.00 0.00 0.00 54 1011.6
20260508013514 48 292 0.9 6.1 0.00 0.00 0.00 54 1011.6
20260508013029 48 304 1.7 7.8 0.00 0.00 0.00 53 1011.6
20260508012512 48 266 0.9 7.8 0.00 0.00 0.00 52 1011.5
20260508012014 48 297 0.9 7.8 0.00 0.00 0.00 51 1011.4
20260508011530 49 306 0.0 3.5 0.00 0.00 0.00 50 1011.3
20260508011013 49 0 0.0 6.1 0.00 0.00 0.00 50 1011.3
20260508010512 49 317 0.9 6.1 0.00 0.00 0.00 49 1011.3
20260508010033 49 296 2.6 6.1 0.00 0.00 0.00 49 1011.2
20260508005513 49 0 0.9 3.5 0.00 0.00 0.00 49 1011.2
20260508005015 49 274 0.0 3.5 0.00 0.00 0.00 48 1011.1
20260508004530 50 0 0.0 3.5 0.00 0.00 0.00 47 1011.1
20260508004018 50 264 0.0 3.5 0.00 0.00 0.00 47 1011.0
20260508003513 50 0 0.0 5.2 0.00 0.00 0.00 46 1010.9
20260508003031 50 0 0.9 7.0 0.00 0.00 0.00 45 1011.0
20260508002516 51 300 2.6 7.8 0.00 0.00 0.00 45 1011.1
20260508002015 51 316 1.7 7.8 0.00 0.00 0.00 44 1011.1
20260508001535 51 264 1.7 7.0 0.00 0.00 0.00 44 1011.1
20260508001016 51 226 2.6 7.8 0.00 0.00 0.00 44 1011.1
20260508000517 51 218 1.7 8.7 0.00 0.00 0.00 44 1011.1
20260508000034 51 219 3.5 9.6 0.00 0.00 0.00 44 1011.0
20260507235522 51 283 2.6 9.6 0.00 0.00 0.00 44 1010.9
20260507235013 51 295 2.6 9.6 0.00 0.00 0.00 44 1010.7
20260507234539 51 255 1.7 6.1 0.00 0.00 0.00 43 1010.6
20260507234015 51 226 1.7 7.0 0.00 0.00 0.00 44 1010.6
20260507233517 51 0 2.6 7.0 0.00 0.00 0.00 44 1010.7
20260507233033 51 272 3.5 8.7 0.00 0.00 0.00 43 1010.8
20260507232517 51 272 1.7 9.6 0.00 0.00 0.00 43 1010.8
20260507232014 52 296 1.7 11.3 0.00 0.00 0.00 42 1010.8
20260507231529 52 276 5.2 11.3 0.00 0.00 0.00 41 1010.8
20260507231016 53 319 2.6 10.4 0.00 0.00 0.00 42 1010.8
20260507230516 53 290 2.6 10.4 0.00 0.00 0.00 41 1010.9
20260507230034 53 252 4.3 10.4 0.00 0.00 0.00 41 1010.7
20260507225516 52 277 4.3 10.4 0.00 0.00 0.00 42 1010.8
20260507225017 52 276 3.5 10.4 0.00 0.00 0.00 41 1010.8
20260507224534 52 290 3.5 10.4 0.00 0.00 0.00 42 1010.9
20260507224017 52 215 3.5 9.6 0.00 0.00 0.00 42 1010.9
20260507223514 52 272 2.6 8.7 0.00 0.00 0.00 43 1010.9
20260507223032 52 268 3.5 9.6 0.00 0.00 0.00 42 1010.9
20260507222517 52 233 4.3 9.6 0.00 0.00 0.00 42 1011.0
20260507222016 52 219 5.2 11.3 0.00 0.00 0.00 42 1011.0
20260507221530 52 233 4.3 15.6 0.00 0.00 0.00 43 1011.1
20260507221015 52 236 3.5 15.6 0.00 0.00 0.00 41 1011.1
20260507220516 53 299 5.2 15.6 0.00 0.00 0.00 40 1011.2
20260507220036 53 233 3.5 13.0 0.00 0.00 0.00 40 1011.0
20260507215520 53 311 4.3 10.4 0.00 0.00 0.00 41 1011.0
20260507215017 52 309 2.6 10.4 0.00 0.00 0.00 42 1011.0
20260507214530 52 353 2.6 10.4 0.00 0.00 0.00 43 1010.9
20260507214017 52 250 3.5 10.4 0.00 0.00 0.00 42 1010.9
20260507213519 52 253 3.5 8.7 0.00 0.00 0.00 42 1011.0
20260507213030 52 252 5.2 9.6 0.00 0.00 0.00 42 1011.0
20260507212511 52 285 4.3 9.6 0.00 0.00 0.00 42 1010.9
20260507212017 52 226 3.5 12.2 0.00 0.00 0.00 41 1010.9
20260507211529 52 291 3.5 12.2 0.00 0.00 0.00 41 1011.0
20260507211013 53 297 4.3 12.2 0.00 0.00 0.00 41 1011.0
20260507210518 53 288 3.5 15.6 0.00 0.00 0.00 40 1011.0
20260507210033 53 284 3.5 15.6 0.00 0.00 0.00 40 1011.0
20260507205514 53 245 5.2 15.6 0.00 0.00 0.00 39 1010.9
20260507205014 54 355 0.9 11.3 0.00 0.00 0.00 40 1010.9
20260507204529 53 257 4.3 11.3 0.00 0.00 0.00 40 1010.9
20260507204014 53 203 4.3 11.3 0.00 0.00 0.00 41 1011.0
20260507203516 53 284 4.3 10.4 0.00 0.00 0.00 41 1011.1
20260507203032 52 213 3.5 10.4 0.00 0.00 0.00 41 1011.0
20260507202513 52 311 2.6 10.4 0.00 0.00 0.00 41 1011.2
20260507202011 52 234 2.6 11.3 0.00 0.00 0.00 41 1011.3
20260507201531 52 217 4.3 13.9 0.00 0.00 0.00 40 1011.3
20260507201015 51 318 4.3 13.9 0.00 0.00 0.00 42 1011.3
20260507200514 51 304 5.2 17.4 0.00 0.00 0.00 41 1011.4
20260507200030 51 275 5.2 17.4 0.00 0.00 0.00 40 1011.4
20260507195514 51 229 5.2 17.4 0.00 0.00 0.00 40 1011.4
20260507195014 51 243 5.2 13.0 0.00 0.00 0.00 40 1011.5
20260507194533 51 266 4.3 12.2 0.00 0.00 0.00 41 1011.5
20260507194014 51 287 3.5 12.2 0.00 0.00 0.00 41 1011.5
20260507193516 52 314 2.6 12.2 0.00 0.00 0.00 41 1011.5
20260507193032 52 222 5.2 12.2 0.00 0.00 0.00 40 1011.5
20260507192515 52 266 7.0 13.9 0.00 0.00 0.00 40 1011.5
20260507192011 52 231 2.6 16.5 0.00 0.00 0.00 41 1011.4
20260507191529 52 258 7.0 16.5 0.00 0.00 0.00 41 1011.5
20260507191014 52 276 6.1 15.6 0.00 0.00 0.00 41 1011.7
20260507190512 51 203 5.2 14.8 0.00 0.00 0.00 41 1011.6
20260507190030 51 299 5.2 11.3 0.00 0.00 0.00 42 1011.5
20260507185514 51 236 1.7 10.4 0.00 0.00 0.00 47 1011.5
20260507185013 50 286 5.2 16.5 0.00 0.00 0.00 45 1011.5
20260507184532 51 252 7.8 16.5 0.00 0.00 0.00 44 1011.6
20260507184015 51 289 2.6 10.4 0.00 0.00 0.00 44 1011.5
20260507183514 51 4 4.3 12.2 0.00 0.00 0.00 43 1011.4
20260507183034 51 217 3.5 12.2 0.00 0.00 0.00 43 1011.5
20260507182515 51 301 2.6 14.8 0.00 0.00 0.00 44 1011.6
20260507182016 50 266 5.2 14.8 0.00 0.00 0.00 45 1011.7
20260507181529 51 302 1.7 11.3 0.00 0.00 0.00 45 1011.6
20260507181014 51 213 5.2 11.3 0.00 0.00 0.00 43 1011.6
20260507180515 51 281 3.5 12.2 0.00 0.00 0.00 43 1011.6
20260507180030 50 257 6.1 12.2 0.00 0.00 0.00 44 1011.6
20260507175514 51 215 4.3 10.4 0.00 0.00 0.00 45 1011.8
20260507175014 51 270 3.5 10.4 0.00 0.00 0.00 44 1011.7
20260507174530 51 268 4.3 9.6 0.00 0.00 0.00 44 1011.8
20260507174013 51 321 4.3 11.3 0.00 0.00 0.00 45 1011.9
20260507173514 51 246 2.6 14.8 0.00 0.00 0.00 47 1011.9
20260507173041 50 314 5.2 14.8 0.00 0.00 0.00 47 1012.1
20260507172515 50 274 5.2 13.0 0.00 0.00 0.00 46 1012.1
20260507172017 51 263 7.8 13.0 0.00 0.00 0.00 47 1012.2
20260507171530 51 274 5.2 11.3 0.00 0.00 0.00 47 1012.3
20260507171014 51 264 2.6 10.4 0.00 0.00 0.00 48 1012.2
20260507170514 51 228 4.3 11.3 0.00 0.00 0.00 47 1012.3
20260507170030 50 274 5.2 11.3 0.00 0.00 0.00 47 1012.3
20260507165514 50 293 1.7 12.2 0.00 0.00 0.00 47 1012.3
20260507165014 50 276 5.2 13.0 0.00 0.00 0.00 46 1012.4
20260507164531 51 321 6.1 13.0 0.00 0.00 0.00 45 1012.3
20260507164012 50 254 4.3 11.3 0.00 0.00 0.00 48 1012.2
20260507163515 50 222 3.5 13.9 0.00 0.00 0.00 47 1012.2
20260507163029 50 257 3.5 13.9 0.00 0.00 0.00 47 1012.3
20260507162512 50 251 7.8 13.9 0.00 0.00 0.00 48 1012.2
20260507162014 51 314 5.2 13.0 0.00 0.00 0.00 47 1012.2
20260507161531 51 270 5.2 11.3 0.00 0.00 0.00 47 1012.2
20260507161012 50 294 2.6 10.4 0.00 0.00 0.00 47 1012.2
20260507160513 50 295 2.6 12.2 0.00 0.00 0.00 46 1012.3
20260507160031 51 335 3.5 12.2 0.00 0.00 0.00 46 1012.3
20260507155513 52 306 5.2 12.2 0.00 0.00 0.00 46 1012.2
20260507155013 51 241 4.3 13.9 0.00 0.00 0.00 47 1012.0
20260507154534 50 233 5.2 13.9 0.00 0.00 0.00 45 1012.2
20260507154014 51 243 5.2 13.9 0.00 0.00 0.00 47 1012.1
20260507153516 51 206 4.3 10.4 0.00 0.00 0.00 47 1012.1
20260507153031 51 232 4.3 10.4 0.00 0.00 0.00 46 1012.1
20260507152513 51 248 3.5 13.0 0.00 0.00 0.00 45 1012.1
20260507152014 52 231 7.0 13.0 0.00 0.00 0.00 43 1012.0
20260507151529 52 213 4.3 9.6 0.00 0.00 0.00 45 1012.0
20260507151014 51 292 2.6 9.6 0.00 0.00 0.00 47 1012.0
20260507150519 50 227 3.5 9.6 0.00 0.00 0.00 47 1012.1
20260507150032 50 262 1.7 9.6 0.00 0.00 0.00 48 1012.1
20260507145519 50 231 2.6 11.3 0.00 0.00 0.00 48 1012.2
20260507145011 50 224 4.3 11.3 0.00 0.00 0.00 47 1012.2
20260507144546 50 226 5.2 9.6 0.00 0.00 0.00 46 1012.2
20260507144014 50 211 3.5 7.8 0.00 0.00 0.00 49 1012.1
20260507143511 50 187 1.7 7.0 0.00 0.00 0.00 47 1012.1
20260507143029 50 214 2.6 7.0 0.00 0.00 0.00 48 1012.1
20260507142513 51 236 1.7 9.6 0.00 0.00 0.00 51 1012.1
20260507142022 50 229 4.3 10.4 0.00 0.00 0.00 47 1012.0
20260507141531 51 200 6.1 10.4 0.00 0.00 0.00 48 1012.1
20260507141014 51 231 3.5 8.7 0.00 0.00 0.00 49 1012.2
20260507140514 51 300 0.9 7.8 0.00 0.00 0.00 50 1012.3
20260507140031 51 270 0.9 7.8 0.00 0.00 0.00 49 1012.3
20260507135515 51 236 3.5 7.8 0.00 0.00 0.00 48 1012.5
20260507135012 51 0 0.0 7.0 0.00 0.00 0.00 50 1012.6
20260507134532 51 229 1.7 4.3 0.00 0.00 0.00 50 1012.5
20260507134014 50 221 0.9 4.3 0.00 0.00 0.00 50 1012.6
20260507133512 50 273 0.0 4.3 0.00 0.00 0.00 52 1012.6
20260507133031 49 243 1.7 4.3 0.00 0.00 0.00 52 1012.6
20260507132514 49 234 0.9 4.3 0.00 0.00 0.00 53 1012.5
20260507132014 49 222 2.6 4.3 0.00 0.00 0.00 51 1012.5
20260507131532 49 221 0.9 4.3 0.00 0.00 0.00 53 1012.5
20260507131016 49 228 0.9 4.3 0.00 0.00 0.00 52 1012.5
20260507130513 49 235 0.9 3.5 0.00 0.00 0.00 54 1012.6
20260507130031 48 224 0.9 3.5 0.00 0.00 0.00 55 1012.5
20260507125511 48 290 0.9 2.6 0.00 0.00 0.00 53 1012.5
20260507125011 48 255 0.0 1.7 0.00 0.00 0.00 57 1012.5
20260507124528 48 259 0.0 1.7 0.00 0.00 0.00 56 1012.5
20260507124017 48 0 0.0 1.7 0.00 0.00 0.00 60 1012.4
20260507123514 47 0 0.0 1.7 0.00 0.00 0.00 64 1012.4
20260507123031 46 257 0.0 1.7 0.00 0.00 0.00 70 1012.5
20260507122511 45 0 0.0 1.7 0.00 0.00 0.00 71 1012.5
20260507122014 44 0 0.9 1.7 0.00 0.00 0.00 71 1012.5
20260507121530 44 265 0.0 1.7 0.00 0.00 0.00 72 1012.5
20260507121014 43 0 0.0 1.7 0.00 0.00 0.00 74 1012.5
20260507120512 43 288 0.0 0.9 0.00 0.00 0.00 77 1012.5
20260507120031 42 0 0.0 0.0 0.00 0.00 0.00 80 1012.6
20260507115513 41 0 0.0 0.0 0.00 0.00 0.00 84 1012.5
20260507115016 41 0 0.0 0.0 0.00 0.00 0.00 85 1012.5
20260507114529 40 0 0.0 0.0 0.00 0.00 0.00 87 1012.5
20260507114011 40 0 0.0 0.0 0.00 0.00 0.00 90 1012.4
20260507113512 40 0 0.0 0.0 0.00 0.00 0.00 93 1012.4
20260507113030 39 0 0.0 0.0 0.00 0.00 0.00 94 1012.4
20260507112518 38 0 0.0 0.0 0.00 0.00 0.00 93 1012.3
20260507112015 37 0 0.0 0.0 0.00 0.00 0.00 93 1012.4
20260507111540 37 0 0.0 0.0 0.00 0.00 0.00 93 1012.3